Weather History for KLHW - September, 2013

Change the Weather History Date:

Wednesday, September 4, 2013

  Actual Average (WUND) Record (WUND)
Temperature  
Mean Temperature 84 °F -  
Max Temperature 93 °F - - (-1)
Min Temperature 74 °F - - (-1)
Cooling Degree Days 18    
Growing Degree Days 34 (Base 50)    
Moisture  
Dew Point 76 °F    
Average Humidity 88    
Maximum Humidity 100    
Minimum Humidity 56    
Precipitation  
Precipitation 0.23 in - - ()
Sea Level Pressure  
Sea Level Pressure 30.02 in    
Wind  
Wind Speed 2 mph (WSW)    
Max Wind Speed 9 mph    
Max Gust Speed -    
Visibility 9 miles    
Events Rain , Thunderstorm    
Averages and records for this station are not official NWS values.
T = Trace of Precipitation, MM = Missing Value Source: NWS Daily Summary

Daily Weather History Graph

Daily Weather History Graph

Search for Another Location

Airport or City:

Trip Planner

Search our weather history database for the weather conditions in past years. The results will help you decide how hot, cold, wet, or windy it might be!

Date:

Astronomy

Sep. 04, 2013 Rise Set
Actual Time 7:03 AM EDT 7:46 PM EDT
Civil Twilight 6:38 AM EDT 8:10 PM EDT
Nautical Twilight 6:09 AM EDT 8:39 PM EDT
Astronomical Twilight 5:39 AM EDT 9:09 PM EDT
Moon 6:14 AM EDT (9/4) 7:07 PM EDT (9/4)
Length of Visible Light 13h 31m
Length of Day
12h 42m
Waning Crescent, 1% of the Moon is Illuminated
Sep 4
Waning Crescent
Sep 5
New
Sep 12
First Quarter
Sep 19
Full
Sep 26
Last Quarter

Hourly Weather History & Observations

Time (EDT) Temp. Heat Index Dew Point Humidity Pressure Visibility Wind Dir Wind Speed Gust Speed Precip Events Conditions
12:58 AM 77.7 °F - 76.6 °F 96% 29.97 in 10.0 mi Calm Calm - N/A   Clear
1:58 AM 76.1 °F - 76.1 °F 100% 29.97 in 10.0 mi Calm Calm - N/A   Clear
2:48 AM 77.0 °F - 77.0 °F 100% 29.97 in 7.0 mi NNE 2.3 mph - N/A   Partly Cloudy
2:58 AM 75.7 °F - 75.7 °F 100% 29.98 in 7.0 mi NNE 2.3 mph - N/A   Partly Cloudy
3:33 AM 75.2 °F - 75.2 °F 100% 29.97 in 10.0 mi Calm Calm - N/A   Clear
3:58 AM 74.8 °F - 74.8 °F 100% 29.98 in 10.0 mi Calm Calm - N/A   Clear
4:03 AM 75.2 °F - 75.2 °F 100% 29.97 in 9.0 mi Calm Calm - N/A   Clear
4:23 AM 75.2 °F - 75.2 °F 100% 29.97 in 10.0 mi Calm Calm - N/A   Clear
4:38 AM 75.2 °F - 75.2 °F 100% 29.97 in 9.0 mi Calm Calm - N/A   Clear
4:58 AM 74.3 °F - 74.3 °F 100% 29.98 in 8.0 mi SW 1.2 mph - N/A   Clear
5:58 AM 75.2 °F - 75.2 °F 100% 29.99 in 9.0 mi SW 2.3 mph - N/A   Clear
6:03 AM 75.2 °F - 75.2 °F 100% 29.98 in 10.0 mi West 2.3 mph - N/A   Clear
6:18 AM 75.2 °F - 75.2 °F 100% 29.98 in 9.0 mi Calm Calm - N/A   Clear
6:38 AM 75.2 °F - 75.2 °F 100% 29.99 in 10.0 mi Calm Calm - N/A   Clear
6:58 AM 74.3 °F - 74.3 °F 100% 30.00 in 7.0 mi Calm Calm - N/A   Clear
7:58 AM 75.0 °F - 75.0 °F 100% 30.02 in 9.0 mi Calm Calm - N/A   Clear
8:58 AM 79.0 °F - 78.8 °F 99% 30.03 in 10.0 mi West 4.6 mph - N/A   Clear
9:58 AM 82.8 °F 92.6 °F 78.1 °F 86% 30.05 in 10.0 mi Variable 1.2 mph - N/A   Clear
10:58 AM 86.2 °F 99.3 °F 78.4 °F 78% 30.06 in 10.0 mi North 1.2 mph - N/A   Clear
11:58 AM 87.4 °F 101.4 °F 78.6 °F 75% 30.06 in 10.0 mi Calm Calm - N/A   Clear
12:58 PM 90.3 °F 106.2 °F 78.8 °F 69% 30.05 in 10.0 mi NNW 2.3 mph - N/A   Scattered Clouds
1:58 PM 90.3 °F 104.2 °F 77.5 °F 66% 30.04 in 10.0 mi Variable 3.5 mph - N/A   Scattered Clouds
2:58 PM 90.5 °F 103.4 °F 76.6 °F 64% 30.03 in 10.0 mi Variable 3.5 mph - N/A   Mostly Cloudy
3:58 PM 91.4 °F 103.1 °F 75.9 °F 60% 30.00 in 10.0 mi West 2.3 mph - N/A   Mostly Cloudy
4:58 PM 93.7 °F 107.1 °F 76.6 °F 57% 30.00 in 10.0 mi SW 4.6 mph - N/A   Mostly Cloudy
5:08 PM 93.2 °F 105.0 °F 75.2 °F 56% 29.99 in 10.0 mi SSW 5.8 mph - N/A Thunderstorm Thunderstorm
5:10 PM 93.2 °F 105.0 °F 75.2 °F 56% 29.99 in 10.0 mi SW 2.3 mph - N/A   Scattered Clouds
5:58 PM 91.2 °F 103.3 °F 76.3 °F 61% 30.00 in 10.0 mi South 9.2 mph - N/A   Mostly Cloudy
6:58 PM 85.1 °F 95.8 °F 77.2 °F 77% 30.01 in 5.0 mi East 8.1 mph - N/A   Haze
7:58 PM 81.9 °F 89.5 °F 76.5 °F 84% 30.03 in 5.0 mi South 4.6 mph - N/A   Haze
8:03 PM 82.4 °F 90.9 °F 77.0 °F 84% 30.02 in 8.0 mi SSE 5.8 mph - N/A   Clear
8:23 PM 80.6 °F 86.2 °F 75.2 °F 84% 30.03 in 10.0 mi SSE 3.5 mph - N/A   Clear
8:58 PM 80.8 °F 87.1 °F 76.3 °F 86% 30.05 in 10.0 mi Calm Calm - N/A   Partly Cloudy
9:02 PM 80.6 °F 87.1 °F 77.0 °F 89% 30.04 in 10.0 mi West 2.3 mph - N/A Thunderstorm Thunderstorm
9:03 PM 80.6 °F 87.1 °F 77.0 °F 89% 30.05 in 10.0 mi West 2.3 mph - N/A   Partly Cloudy
9:09 PM 80.6 °F 87.1 °F 77.0 °F 89% 30.06 in 10.0 mi West 5.8 mph - N/A Thunderstorm Thunderstorm
9:21 PM 80.6 °F 87.1 °F 77.0 °F 89% 30.06 in 10.0 mi WSW 5.8 mph - N/A   Mostly Cloudy
9:22 PM 80.6 °F 87.1 °F 77.0 °F 89% 30.07 in 10.0 mi WSW 5.8 mph - N/A Thunderstorm Thunderstorm
9:26 PM 80.6 °F 87.1 °F 77.0 °F 89% 30.07 in 10.0 mi West 5.8 mph - N/A Rain , Thunderstorm Light Thunderstorms and Rain
9:41 PM 80.6 °F 87.1 °F 77.0 °F 89% 30.07 in 6.0 mi West 5.8 mph - N/A Rain , Thunderstorm Light Thunderstorms and Rain
9:44 PM 80.6 °F 87.1 °F 77.0 °F 89% 30.07 in 3.0 mi West 8.1 mph - N/A Rain Heavy Rain
9:49 PM 78.8 °F - 77.0 °F 94% 30.07 in 1.2 mi South 5.8 mph - N/A Rain Heavy Rain
9:58 PM 78.8 °F - 77.0 °F 94% 30.07 in 2.5 mi South 5.8 mph - 0.21 in Rain Heavy Rain
10:03 PM 78.8 °F - 77.0 °F 94% 30.06 in 8.0 mi SSW 4.6 mph - N/A Rain Light Rain
10:08 PM 78.8 °F - 77.0 °F 94% 30.06 in 10.0 mi SW 4.6 mph - N/A Rain Light Rain
10:11 PM 78.8 °F - 78.8 °F 100% 30.07 in 10.0 mi SSW 4.6 mph - N/A   Overcast
10:58 PM 78.6 °F - 78.6 °F 100% 30.08 in 10.0 mi SSW 5.8 mph - 0.02 in   Clear
11:32 PM 78.8 °F - 77.0 °F 94% 30.07 in 10.0 mi WSW 6.9 mph - N/A   Light Drizzle
11:50 PM 77.0 °F - 75.2 °F 94% 30.07 in 10.0 mi WNW 3.5 mph - N/A   Mostly Cloudy
11:58 PM 77.5 °F - 75.4 °F 93% 30.08 in 9.0 mi North 2.3 mph - 0.00 in   Mostly Cloudy